RH
64 70 75 77 77 75 72 71 73 75 77 77 75 70 64 60 57 56 54 53 53 54 54 54 54 54 54 54 53 53 53 53 54 54 54 55 55 55 54 53 52 50 48 47 46 45 44 44 43 42 42 41 40 39 38 36 35 33 32 30 30 29 29 30 29 29 29 29 30
64 69 73 75 74 74 74 74 76 77 76 73 66 61 57 55 54 53 52 52 53 53 53 53 53 53 53 53 53 53 54 54 55 55 56 56 56 55 55 53 51 50 48 47 47 46 45 45 44 43 42 41 41 39 38 36 35 33 32 31 30 30 30 30 30 30 30 30 31
63 65 68 70 73 74 75 74 73 71 67 62 57 54 53 52 51 51 51 51 52 52 52 52 52 52 53 53 54 55 55 56 57 57 57 57 56 55 54 53 51 50 50 49 48 47 46 45 44 43 42 42 41 40 38 36 35 33 32 31 31 30 30 30 30 30 31 31 32
61 63 65 69 72 74 73 69 65 61 57 54 53 52 51 50 50 50 50 51 51 52 52 52 53 53 54 54 55 56 57 57 57 57 57 57 56 55 54 53 53 52 52 51 50 49 47 45 44 43 42 42 41 40 38 36 35 33 32 31 31 30 30 31 31 31 32 33 34
60 62 65 68 71 70 67 62 57 54 52 50 50 50 49 49 49 49 49 50 51 52 52 53 53 54 55 56 56 57 57 57 57 57 57 57 56 55 55 55 55 55 54 53 51 49 47 45 44 43 42 42 41 40 38 36 35 33 32 31 31 31 31 31 32 33 34 34 35
61 64 65 66 65 63 60 56 52 50 49 48 48 48 48 48 48 48 49 50 51 52 53 54 54 55 55 56 56 57 57 57 57 57 57 56 56 56 56 57 57 56 55 54 51 49 46 44 43 43 42 42 41 40 38 36 34 33 32 31 31 31 32 33 34 34 35 36 36
63 64 63 60 58 56 54 52 50 49 47 47 46 46 46 47 47 48 49 50 51 52 53 54 55 55 56 56 56 56 57 58 58 57 57 56 57 57 58 58 58 57 56 53 51 48 46 44 43 43 43 43 42 40 38 36 34 33 32 32 32 32 33 34 35 36 37 37 37
64 62 59 55 54 53 52 50 49 48 46 45 45 45 45 46 47 48 49 50 52 52 53 54 54 54 55 55 56 57 58 58 58 58 57 57 58 59 59 60 59 58 55 53 50 47 45 44 43 44 44 44 43 40 38 35 33 33 32 33 33 34 35 36 37 37 37 37 37
61 58 55 53 53 52 50 49 48 47 46 44 44 45 45 46 47 48 50 51 52 52 53 53 53 54 54 56 57 58 59 59 58 58 58 59 59 60 60 60 59 57 54 51 49 46 45 44 44 45 45 45 43 40 37 34 33 33 33 34 35 36 36 37 38 38 38 37 36
57 54 53 52 52 50 49 47 47 45 44 44 44 45 46 47 48 49 50 51 51 52 52 52 53 54 56 58 59 60 60 60 60 60 60 61 61 61 61 60 58 56 53 50 48 46 45 45 46 46 46 45 42 39 36 34 33 34 35 35 37 37 38 38 38 38 37 36 35
54 52 52 52 50 48 47 46 45 44 44 44 45 46 47 48 49 50 50 51 51 51 52 53 54 56 58 59 60 61 61 62 62 62 62 62 62 62 61 59 57 55 52 50 48 46 46 47 48 48 47 45 41 38 35 34 34 35 36 37 38 38 38 38 38 37 36 35 33
53 52 51 50 47 46 45 44 44 43 43 44 45 47 48 49 49 49 50 50 51 51 53 54 57 58 60 61 62 63 64 64 64 64 64 64 63 62 60 58 56 54 51 49 48 47 48 49 50 49 47 44 40 37 35 35 35 37 38 38 39 39 39 38 37 36 34 32 30
52 51 50 47 45 44 44 43 43 43 44 45 46 47 48 48 48 49 49 50 52 53 55 56 58 59 61 62 63 65 66 66 66 65 65 64 63 62 60 57 55 53 51 49 49 49 51 52 52 50 47 43 39 36 35 36 37 38 39 39 39 39 38 37 36 34 32 30 28
51 50 47 43 42 42 43 42 42 43 44 45 46 47 47 48 49 50 51 53 54 55 56 57 59 61 62 64 65 66 67 67 66 66 65 64 63 61 59 56 54 52 51 50 51 52 53 54 52 49 45 41 38 36 36 36 37 38 39 40 39 39 37 36 34 32 30 28 27
50 47 44 42 41 42 42 42 42 43 44 45 46 48 49 50 51 53 54 55 55 56 57 58 60 62 64 66 67 67 67 67 67 66 65 64 62 60 57 55 53 52 52 52 53 55 55 55 52 47 43 39 37 36 36 37 38 39 39 39 39 37 36 34 32 30 28 28 28
49 45 43 41 42 42 42 42 42 43 44 46 48 50 52 53 54 55 55 55 55 57 58 60 62 64 66 67 68 68 68 67 67 66 65 63 61 58 56 54 53 53 54 55 56 57 57 54 50 45 40 37 36 36 37 38 39 39 39 38 37 36 34 32 30 29 28 28 29
48 45 43 43 43 43 43 44 45 46 47 49 52 54 55 55 55 55 54 55 56 58 60 63 64 66 67 68 68 68 68 67 67 65 64 62 59 57 56 55 55 55 57 58 59 59 56 52 46 42 38 36 36 36 37 38 39 39 38 37 35 34 32 31 30 30 30 30 30
48 46 45 46 46 47 47 48 49 50 52 54 55 56 56 55 54 54 55 57 59 61 63 65 66 67 68 68 68 68 68 67 66 64 63 61 59 57 57 57 57 58 60 60 60 58 54 48 43 39 36 35 36 37 38 39 39 38 37 36 34 33 32 31 31 31 31 31 31
49 48 48 49 49 51 52 53 54 56 57 57 56 55 54 53 54 55 57 59 61 63 65 66 67 68 69 69 69 68 67 66 65 63 62 60 59 59 59 60 60 61 61 61 59 55 50 44 39 36 35 35 37 38 38 38 38 37 35 34 33 33 32 32 32 32 32 32 31
50 50 51 52 53 55 56 58 59 59 59 57 55 54 54 54 56 58 60 62 64 65 66 67 68 68 69 69 68 67 66 65 64 63 62 61 61 61 62 63 63 63 62 60 55 50 45 39 36 35 35 36 37 38 38 37 36 35 35 34 34 34 34 34 34 33 33 31 30
53 54 55 56 57 59 60 62 61 60 58 55 54 54 55 57 59 61 63 64 65 66 68 68 69 69 69 68 67 66 65 65 64 64 64 64 64 64 64 65 64 62 60 56 50 45 40 36 35 35 36 37 37 37 37 36 36 35 35 35 35 35 35 35 34 33 32 30 29
57 58 59 60 61 62 63 63 61 58 56 54 55 56 57 59 61 63 64 66 67 67 68 69 69 69 68 67 66 65 65 65 65 66 67 67 67 66 65 64 63 60 56 51 45 40 37 35 35 35 36 37 37 37 36 36 36 36 36 37 37 37 36 35 34 32 30 29 28
60 61 62 63 63 63 62 60 58 56 55 55 57 58 60 61 63 64 65 66 67 68 69 69 69 68 67 66 66 66 66 67 68 69 69 69 69 67 65 63 60 56 51 45 41 37 35 35 36 36 37 37 37 37 37 37 37 37 38 38 37 36 35 34 32 31 29 28 28
63 64 64 64 63 61 59 57 56 56 56 57 58 60 61 63 64 65 67 67 68 69 69 68 68 67 67 67 67 68 69 70 71 72 71 70 68 66 63 60 56 51 46 41 37 35 35 35 36 36 37 37 37 37 38 38 39 39 39 38 37 35 34 32 30 29 28 28 27
66 66 65 63 60 58 56 55 56 57 58 59 60 61 63 65 66 66 67 68 68 68 68 67 67 67 67 68 69 71 72 73 74 73 71 69 66 63 60 57 52 46 41 37 35 35 35 36 36 36 36 36 37 37 38 39 40 40 38 37 35 33 32 30 29 28 28 27 26
67 66 63 59 57 56 56 56 57 58 59 60 62 63 65 66 66 67 67 68 68 68 67 67 68 68 70 71 73 74 75 75 74 72 69 66 63 60 57 52 47 42 38 35 35 35 36 36 36 36 36 37 37 39 40 40 40 39 37 35 33 32 30 29 28 28 27 26 25
67 63 60 57 56 56 57 57 58 59 61 62 64 65 66 66 67 67 67 68 68 68 68 68 70 72 73 75 76 77 76 74 72 68 66 63 60 57 53 48 43 39 36 35 35 35 36 36 37 37 38 39 39 40 40 40 39 37 35 33 32 30 29 28 28 27 26 25 24
64 61 58 57 58 58 59 59 60 61 62 64 65 65 66 66 66 67 67 68 68 69 70 71 73 75 77 78 78 77 75 72 68 65 63 61 57 53 48 43 39 36 35 35 35 36 36 37 38 39 40 41 40 40 39 38 37 35 33 31 30 29 29 28 26 26 25 24 24
63 61 60 59 59 60 60 61 62 63 64 65 65 65 65 66 66 67 68 69 70 71 73 75 77 78 79 79 77 75 72 68 65 63 61 58 53 48 43 39 36 35 35 35 36 37 38 39 41 41 42 42 41 39 38 36 35 33 32 30 29 28 27 26 25 24 24 24 24
62 61 61 61 61 62 62 63 64 65 65 65 65 65 65 65 66 68 69 71 73 75 77 78 80 80 79 78 75 72 68 65 63 61 58 53 48 43 39 36 35 35 35 36 37 38 40 42 43 43 43 41 40 37 35 34 33 32 30 29 28 27 26 24 24 23 23 23 25
63 62 62 62 63 64 65 65 65 65 65 64 64 64 65 66 68 70 73 75 77 79 80 81 81 80 78 75 72 69 66 64 61 57 53 48 43 39 37 35 35 36 36 38 39 41 43 44 44 43 42 40 38 35 33 32 31 30 29 28 27 26 25 24 23 23 23 24 25
63 63 64 65 66 66 66 65 65 65 64 64 64 65 66 68 71 74 76 79 80 81 81 82 80 78 75 71 69 66 63 61 57 52 47 42 39 37 36 36 36 37 38 40 42 44 44 45 44 42 40 38 35 33 31 30 30 29 29 27 26 26 25 25 24 24 24 25 26
65 65 66 67 66 66 65 65 65 65 65 65 65 67 69 71 75 77 80 81 82 82 82 81 79 76 72 68 66 63 60 57 51 46 41 38 37 36 36 37 38 39 41 43 45 45 45 44 43 40 38 35 33 31 30 29 29 29 28 27 27 27 26 26 25 25 25 26 27
67 67 67 67 66 66 65 65 65 65 65 65 67 70 73 76 79 80 82 82 82 82 81 79 76 73 70 66 63 60 55 50 45 40 38 36 36 37 38 39 40 42 44 46 46 46 45 43 40 37 35 33 31 30 29 29 29 29 28 28 28 28 28 27 27 27 27 28 28
68 68 67 67 66 66 66 66 66 66 66 68 71 74 77 80 81 82 83 83 82 81 79 76 73 70 66 63 58 54 49 44 40 38 37 36 37 38 39 41 43 45 46 47 46 45 43 40 37 35 32 31 29 28 28 28 29 28 28 28 28 28 28 28 28 28 28 29 29
68 68 67 67 67 67 67 66 66 67 69 72 75 78 80 82 83 83 83 82 81 79 76 72 69 65 62 57 52 47 43 40 38 37 36 36 38 40 42 44 46 47 47 47 45 43 40 37 35 33 31 29 28 27 27 28 28 28 28 28 28 27 27 27 28 28 29 29 29
68 67 67 67 67 67 67 67 69 71 74 77 79 80 82 83 84 83 82 81 78 75 71 67 64 60 55 50 45 42 39 37 36 36 37 38 40 43 45 47 47 47 46 45 43 40 37 35 33 31 29 27 26 26 26 27 27 28 28 28 27 27 27 27 28 28 29 29 29
67 67 67 67 67 67 68 70 73 76 78 80 81 82 83 84 84 82 80 78 74 70 66 62 58 53 48 43 40 38 36 35 35 37 39 41 44 46 48 48 47 46 45 42 40 37 35 33 31 29 27 25 24 24 25 26 27 28 28 27 27 26 27 27 28 28 29 29 29
67 67 67 67 68 69 71 74 77 78 80 81 82 83 84 84 82 80 77 74 70 66 61 56 51 46 42 39 37 36 35 35 37 39 42 45 46 47 48 48 46 44 42 40 37 35 33 31 29 27 25 23 23 23 24 26 27 27 27 27 26 26 27 28 28 29 29 29 29
66 66 67 68 70 72 74 76 78 80 81 83 84 84 83 82 79 76 73 69 65 59 54 48 44 40 38 36 35 35 36 37 40 42 45 47 48 48 47 46 44 41 39 37 35 33 31 29 27 25 23 21 22 22 23 25 27 27 27 27 27 27 28 29 29 29 29 29 29
66 67 69 71 73 74 76 77 79 81 83 83 84 83 81 79 76 72 67 62 56 51 45 42 39 37 35 34 35 37 39 42 44 46 47 48 48 47 45 43 41 39 37 35 33 31 28 26 24 23 21 20 21 22 23 25 27 28 28 27 27 28 29 29 30 29 29 28 28